SCP
0 0 0 0 0 0 0 0 0 0 0 0 0 0 0 0 0 0 0 0 0 0 0 0 0 0 0 0 0 0 0 1 1 1 1 1 1 1 1 1 1 1 1
0 0 0 0 0 0 0 0 0 0 0 0 0 0 0 0 0 0 0 0 0 0 0 0 0 0 0 0 0 0 0 1 1 1 1 1 1 1 1 1 1 1 1
0 0 0 0 0 0 0 0 0 0 0 0 0 0 0 0 0 0 0 0 0 0 0 0 0 0 0 0 0 0 0 1 1 1 1 1 1 1 1 1 1 1 1
0 0 0 0 0 0 0 0 0 0 0 0 0 0 0 0 0 0 0 0 0 0 0 0 0 0 0 0 0 0 0 1 1 1 1 1 0 0 1 1 1 0 0
0 0 0 0 0 0 1 1 0 0 0 0 0 0 0 0 0 0 0 0 0 0 0 0 0 0 0 0 0 0 0 0 1 1 1 1 0 0 0 0 0 0 0
0 0 0 0 0 0 1 1 1 0 0 0 0 0 0 0 0 0 0 0 0 0 0 0 0 0 0 0 0 0 0 0 0 1 1 1 1 0 0 0 0 0 0
0 0 0 0 0 0 0 0 1 1 0 0 0 0 0 0 0 0 0 0 0 0 0 0 0 0 0 0 0 0 0 0 0 0 1 1 1 1 1 0 0 0 0
0 0 0 0 0 0 0 0 0 0 1 0 0 0 0 0 0 0 0 0 0 0 0 0 0 0 0 0 0 0 0 0 0 0 1 1 1 1 1 1 1 1 1
1 0 0 0 0 0 0 0 0 0 0 0 0 0 0 0 0 0 0 0 0 0 0 0 0 0 0 0 0 0 0 0 0 0 0 1 1 1 1 1 1 1 1
1 1 1 1 1 1 1 0 0 0 0 0 0 0 0 0 0 0 0 0 0 0 0 0 0 0 0 0 0 0 0 0 0 0 0 0 1 1 1 1 1 1 1
0 0 1 1 1 1 1 1 1 0 0 0 0 0 0 0 0 0 0 0 0 0 0 0 0 0 0 0 0 0 0 0 0 0 0 0 0 1 1 1 1 1 1
0 0 0 0 1 1 1 1 0 0 0 0 0 0 0 0 0 0 0 0 0 0 0 0 0 0 0 0 0 0 0 0 0 0 0 0 0 0 0 1 1 1 1
0 0 0 0 0 1 0 0 0 0 0 0 0 0 0 0 0 0 0 0 0 0 0 0 0 0 0 0 0 0 0 0 0 0 0 0 0 0 0 0 1 1 1
0 0 0 0 0 0 0 0 0 0 0 0 0 0 0 0 0 0 0 0 0 0 0 0 0 0 0 0 0 0 0 0 0 0 0 0 0 0 0 0 0 1 1
0 0 0 0 0 0 0 0 0 0 0 0 0 0 0 0 0 0 0 0 0 0 0 0 0 0 0 0 0 0 0 0 0 0 0 0 0 0 0 0 0 0 0
0 0 0 0 0 0 0 0 0 0 0 0 0 0 0 0 0 0 1 1 0 0 0 0 0 0 0 0 0 0 0 0 0 0 0 0 0 0 0 0 0 0 0
0 0 0 0 0 0 0 0 0 0 0 0 0 0 0 0 0 0 0 0 1 1 0 0 0 0 0 0 0 0 0 0 0 0 0 0 0 0 0 0 0 0 0
0 0 0 0 0 0 0 0 0 0 0 0 0 0 0 0 0 0 0 0 0 0 0 0 0 0 0 0 0 0 0 0 0 0 0 0 0 0 0 0 0 0 0
0 0 0 0 0 0 0 0 0 0 0 0 0 0 0 0 0 0 0 0 0 0 0 0 0 0 0 0 0 0 0 0 0 0 0 0 0 0 0 0 0 0 0
0 0 0 0 0 0 0 0 0 0 0 0 0 0 0 0 0 0 0 0 0 0 0 0 0 0 0 0 0 0 0 0 0 0 0 0 0 0 0 0 0 0 0
0 0 0 0 0 0 0 0 0 0 0 0 0 0 0 0 0 0 0 0 0 0 0 0 0 0 0 0 0 0 0 0 0 0 0 0 0 0 0 0 0 0 0
0 0 0 0 0 0 0 0 0 0 0 0 0 0 0 0 0 0 0 0 0 0 0 0 0 0 0 0 0 0 0 0 0 0 0 0 0 0 0 0 0 0 0
0 0 0 0 0 0 0 0 0 0 0 0 0 0 0 0 0 0 0 0 0 0 0 0 0 0 0 0 0 0 0 0 0 0 0 0 0 0 0 0 0 0 0
0 0 0 0 0 0 0 0 0 0 0 0 0 0 0 0 0 0 0 0 0 0 0 0 0 0 0 0 0 0 0 0 0 0 0 0 0 0 0 0 0 0 0
0 0 0 0 0 0 0 0 0 0 0 0 0 0 0 0 0 0 0 0 0 0 0 0 0 0 0 0 0 0 0 0 0 0 0 0 0 0 0 0 0 0 0
0 0 0 0 0 0 0 0 0 0 0 0 0 0 0 0 0 0 0 0 0 0 0 0 0 0 0 0 0 0 0 0 0 0 0 0 0 0 0 0 0 0 0
Wind_Speed
2 2 2 2 2 2 2 2 2 2 3 3 3 4 4 4 5 4 4 8 10 11 12 12 12 11 10 10 10 10 10 9 8 8 9 9 9 10 10 10 11 11 11
2 3 3 2 3 3 3 3 3 3 3 3 4 4 5 5 5 5 4 5 8 10 12 12 12 11 11 11 11 10 10 10 9 9 9 9 9 10 10 10 11 11 11
2 2 3 3 3 3 3 3 3 3 3 3 4 5 4 5 5 5 5 4 4 7 10 11 11 11 11 11 11 11 11 11 10 9 9 9 10 10 10 10 11 12 12
1 1 2 3 3 2 2 3 3 2 3 3 4 4 4 4 5 6 5 4 4 4 6 9 9 9 10 11 11 11 12 12 11 11 10 10 10 11 11 11 12 12 12
1 1 1 2 2 2 2 2 2 2 3 4 4 4 4 4 5 5 5 5 5 4 3 4 6 7 9 10 11 12 12 12 12 11 11 11 11 12 12 12 12 13 13
1 1 1 2 1 2 2 2 3 3 3 3 4 5 5 5 4 4 5 4 4 4 3 3 3 4 7 9 10 12 12 12 12 12 12 12 12 12 13 13 13 13 13
2 1 2 2 2 2 2 2 2 3 3 2 2 4 4 5 5 4 3 3 4 3 3 3 3 3 3 7 9 11 12 12 12 12 12 12 13 13 13 14 14 14 14
3 2 2 2 2 2 2 3 2 2 2 1 2 3 4 3 2 3 3 3 3 2 3 3 3 3 3 3 5 10 11 12 12 13 13 12 13 14 14 14 14 14 14
4 3 3 2 2 1 2 2 2 3 3 3 2 2 2 4 4 2 2 2 2 2 3 3 3 3 4 3 4 6 9 11 12 13 13 13 13 14 15 15 15 15 15
5 5 5 4 3 2 2 3 2 3 3 3 3 3 3 3 3 4 3 2 2 3 4 3 3 4 4 3 4 6 7 9 11 12 13 13 13 14 14 15 15 15 15
5 5 5 5 4 3 3 3 2 3 3 3 3 3 3 3 3 4 5 4 3 2 3 4 3 3 3 3 4 6 8 9 10 11 12 13 14 14 15 15 16 16 15
4 6 5 5 5 5 5 4 3 3 3 3 3 3 3 3 3 4 6 6 6 4 3 3 3 3 3 3 5 7 8 10 10 11 11 12 13 14 15 16 16 15 14
4 6 5 5 5 5 5 5 4 4 3 3 3 3 3 4 3 4 5 6 6 5 3 3 3 3 3 3 4 7 8 9 10 10 11 11 12 12 13 15 15 15 14
4 5 5 5 5 5 6 5 4 5 4 3 4 4 4 4 4 4 4 5 7 6 4 4 2 2 3 3 5 7 6 9 10 10 10 10 11 11 11 12 13 13 12
4 5 5 5 5 5 5 5 4 5 5 4 4 4 3 3 3 4 4 4 5 7 7 4 3 2 3 3 5 5 6 8 9 10 10 10 10 10 11 11 12 12 12
4 5 5 5 5 5 5 4 4 5 5 5 4 4 4 4 4 3 3 4 4 6 8 4 4 4 4 4 6 5 6 9 9 9 10 10 11 10 10 10 11 12 12
5 5 5 5 6 6 5 5 5 5 5 5 5 5 5 5 4 4 3 4 4 5 8 7 4 4 5 6 6 5 5 5 5 9 9 10 11 10 10 10 11 11 11
5 5 5 5 5 6 5 5 6 6 6 6 6 5 6 5 5 5 4 5 4 5 6 10 7 5 5 5 6 6 5 5 5 8 10 10 10 10 10 10 10 10 10
5 5 5 5 5 6 6 5 5 5 5 5 5 6 6 6 6 5 5 5 5 5 5 6 7 5 4 4 5 5 5 5 5 6 8 9 9 9 10 10 9 9 10
5 5 6 5 5 5 6 5 5 5 5 5 5 5 5 5 6 6 6 6 6 6 5 6 6 5 5 4 3 4 6 4 5 5 6 7 8 9 9 10 9 9 10
5 5 5 5 6 5 5 6 5 5 5 6 5 5 6 6 7 7 6 6 6 5 5 5 6 5 5 5 5 4 6 6 6 3 4 4 4 4 5 7 8 9 10
5 5 5 6 6 5 9 10 8 6 6 6 7 6 6 6 8 9 10 10 9 7 7 6 6 6 7 6 6 6 6 6 6 2 4 5 3 4 4 3 8 10 11
5 5 5 6 6 8 11 11 11 7 6 6 6 7 6 7 7 7 9 10 9 9 9 7 8 8 7 6 7 7 7 7 8 5 4 6 3 5 4 5 10 10 11
5 5 5 6 6 7 11 12 11 7 6 6 6 6 7 8 8 9 8 8 7 7 8 6 6 7 7 6 6 7 8 8 7 4 3 5 4 4 5 5 8 10 11
5 5 5 5 6 8 11 12 11 6 6 7 6 6 7 8 11 13 9 9 9 7 8 9 9 9 9 9 7 4 4 4 5 4 2 3 4 5 4 4 5 9 10
5 6 6 5 6 7 11 13 12 5 6 6 6 6 7 10 13 13 8 8 9 8 7 6 6 7 6 6 7 4 4 4 4 4 2 3 3 3 5 3 3 4 6
Wind_Direction
221 220 221 221 222 219 223 236 245 256 264 269 268 269 274 279 274 265 268 269 271 275 276 274 274 274 276 278 278 277 274 272 268 266 264 265 267 270 272 274 276 276 276
222 231 228 228 230 225 225 226 236 246 256 262 269 267 266 269 274 267 261 267 267 269 273 276 277 275 276 277 278 278 276 274 272 266 264 266 267 269 272 275 278 278 278
231 235 230 232 236 231 231 235 242 244 256 263 268 268 267 267 266 269 264 259 261 264 267 272 274 277 278 279 279 279 279 280 278 273 269 268 268 269 271 273 274 275 276
261 245 260 253 250 240 235 239 244 251 256 260 266 269 265 266 268 265 265 259 253 258 264 269 271 275 279 281 281 281 279 278 277 274 272 270 269 270 272 273 274 275 276
295 264 264 288 286 256 244 248 250 245 257 263 266 268 264 260 262 263 262 261 255 253 253 266 268 272 277 280 283 283 281 280 278 275 273 272 272 272 273 272 272 273 273
338 302 283 306 320 314 295 280 267 259 257 270 275 273 266 261 258 257 259 265 260 253 253 260 264 271 273 278 283 284 285 285 283 280 276 273 273 274 275 274 274 273 273
346 331 313 322 331 303 296 301 294 284 276 280 286 289 276 260 256 258 257 259 262 259 259 260 259 263 273 280 283 285 286 288 288 287 286 281 277 276 275 274 274 274 273
348 335 321 304 305 299 315 324 322 307 291 285 275 293 299 305 286 259 255 258 270 274 266 269 267 265 269 271 283 284 286 289 290 290 289 289 287 283 280 277 276 276 275
4 354 333 309 301 283 291 299 302 285 289 286 259 258 275 274 305 284 264 260 275 289 278 270 267 270 270 269 275 285 288 288 290 291 290 290 289 289 287 284 280 278 277
8 4 354 336 322 308 297 291 292 292 289 289 288 266 262 272 277 296 292 278 283 280 283 284 277 274 273 270 274 285 289 288 289 291 292 291 290 291 290 288 285 281 279
5 4 355 345 334 327 319 308 297 289 281 283 284 290 288 284 266 269 285 296 296 272 274 278 276 277 279 275 280 296 298 292 291 291 292 292 291 289 289 289 288 285 283
355 2 352 347 343 339 331 321 312 306 297 293 290 290 287 285 287 273 276 290 289 282 274 267 271 273 272 271 281 296 295 293 293 293 293 292 292 291 288 287 285 284 283
348 353 353 351 345 342 339 338 329 321 313 303 294 289 282 279 281 278 278 287 287 287 270 254 251 268 279 279 286 301 291 292 293 294 293 292 292 292 291 287 284 283 282
340 347 352 352 349 346 344 339 335 328 322 310 303 297 292 294 294 288 282 286 288 283 273 266 270 262 283 284 296 301 290 293 292 292 293 294 296 296 296 294 291 288 286
348 353 354 351 350 348 345 342 340 336 333 326 316 308 298 297 295 293 290 282 276 285 284 277 276 280 289 287 299 291 289 295 296 296 295 296 296 296 296 295 291 289 286
354 353 352 350 349 345 345 343 336 335 335 333 326 324 316 312 302 297 293 292 282 275 278 285 284 296 296 294 300 293 288 299 295 295 295 296 295 295 294 293 292 291 290
352 351 347 346 345 343 343 342 336 334 336 331 327 324 319 313 308 306 299 292 288 284 281 290 289 294 293 293 298 292 287 287 291 293 294 295 295 294 294 295 294 291 290
355 352 351 351 347 344 343 339 333 334 332 329 327 327 325 323 322 318 311 302 295 290 284 291 296 297 295 300 301 296 296 294 290 294 294 294 294 297 299 299 300 297 295
352 353 354 353 348 344 342 338 337 338 335 330 329 328 326 331 328 323 317 310 305 303 294 291 297 300 301 306 307 303 300 296 297 298 297 296 300 303 302 302 300 298 294
349 349 348 343 337 335 332 328 331 332 328 325 325 323 322 322 318 318 313 308 304 302 298 293 293 298 301 304 298 302 303 301 297 298 296 300 302 302 300 300 297 296 297
346 342 340 336 333 330 329 327 327 326 324 322 321 319 318 320 321 316 312 313 309 300 297 294 294 299 304 316 311 308 302 306 293 285 295 289 291 288 291 293 294 297 301
341 340 335 332 331 328 330 329 325 322 322 320 319 318 316 314 318 318 317 314 310 305 302 296 293 295 299 304 305 306 308 310 299 305 300 290 282 283 289 287 295 303 305
335 333 328 328 324 322 328 328 328 323 318 315 315 315 316 317 313 311 313 313 310 308 301 292 290 291 294 297 299 298 298 295 288 298 299 282 274 277 286 288 296 303 307
324 320 319 317 316 318 325 327 328 320 310 308 306 306 307 310 312 314 309 308 307 307 301 293 286 290 295 297 289 288 290 291 286 283 287 280 290 288 295 292 296 303 307
314 310 311 315 315 316 322 324 324 312 308 308 306 307 306 304 312 318 313 307 306 305 308 304 302 304 305 307 311 304 296 295 292 287 297 286 293 302 292 289 308 318 317
308 311 311 313 310 308 315 320 321 310 308 307 307 306 307 310 313 316 311 306 304 305 308 309 308 308 306 307 314 297 284 282 288 285 307 305 295 318 302 291 309 323 325